^^
Station Historical Data
Daily Summary for January 4, 2017 Units:  English    Metric   Both
« Previous Day
Next Day »
Daily Weekly Monthly Yearly Custom
  High: Low: Average:
Temperature: 49.1 °F 31.9 °F 41 °F
Dew Point: 42.9 °F 14.0 °F 32.4 °F
Humidity: 98% 36% 75%
Wind Speed: 14.0mph 0.0mph 4.1mph
Wind Gust: 26.0mph - -
Wind- - SW
Pressure: 29.73 in 29.44 in -
Precipitation: 0.01 in    
Historical Graphs
 
 
Tabular Data for January 4, 2017
Time Temperature Dew Point Pressure Wind Wind Speed Wind Gust Humidity Rainfall Rate (Hourly) Conditions
00:00 38.1 °F 37.3 °F 29.50 in NW 1.0 mph 4.0 mph 97% 0.00 in -DZ
00:10 38.1 °F 37.3 °F 29.49 in Calm   4.0 mph 97% 0.00 in -DZ
00:20 38.1 °F 37.3 °F 29.50 in North 1.0 mph 4.0 mph 97% 0.00 in -DZ
00:30 38.1 °F 37.3 °F 29.48 in Calm   3.0 mph 97% 0.01 in -DZ
00:40 38.1 °F 37.3 °F 29.47 in North 1.0 mph 4.0 mph 97% 0.00 in -DZ
00:50 38.1 °F 37.3 °F 29.46 in Calm   3.0 mph 97% 0.00 in -DZ
01:00 38.2 °F 37.4 °F 29.47 in Calm   1.0 mph 97% 0.00 in -DZ
01:10 38.2 °F 37.4 °F 29.47 in Calm   1.0 mph 97% 0.00 in -DZ
01:20 38.2 °F 37.4 °F 29.47 in Calm   1.0 mph 97% 0.00 in -DZ
01:30 38.3 °F 37.5 °F 29.47 in Calm   1.0 mph 97% 0.00 in -DZ
01:40 38.3 °F 37.5 °F 29.47 in Calm     97% 0.00 in -DZ
01:50 38.3 °F 37.5 °F 29.48 in Calm   1.0 mph 97% 0.00 in -DZ
02:00 38.3 °F 37.5 °F 29.48 in Calm   1.0 mph 97% 0.00 in -DZ
02:10 38.4 °F 37.6 °F 29.47 in Calm   1.0 mph 97% 0.00 in -DZ
02:20 38.3 °F 37.5 °F 29.47 in Calm   2.0 mph 97% 0.00 in -DZ
02:30 38.3 °F 37.5 °F 29.47 in SW 1.0 mph 2.0 mph 97% 0.00 in -DZ
02:40 38.4 °F 37.6 °F 29.47 in Calm   1.0 mph 97% 0.00 in -DZ
02:50 38.5 °F 37.7 °F 29.45 in Calm   1.0 mph 97% 0.00 in -DZ
03:00 38.5 °F 37.7 °F 29.44 in Calm   2.0 mph 97% 0.00 in -DZ
03:10 38.3 °F 37.5 °F 29.46 in Calm   1.0 mph 97% 0.00 in -DZ
03:20 38.3 °F 37.5 °F 29.45 in Calm   1.0 mph 97% 0.00 in -DZ
03:30 38.1 °F 37.3 °F 29.44 in Calm   1.0 mph 97% 0.00 in -DZ
03:40 38.2 °F 37.4 °F 29.46 in Calm   1.0 mph 97% 0.00 in -DZ
03:50 38.2 °F 37.4 °F 29.45 in Calm   4.0 mph 97% 0.00 in -DZ
04:00 38.3 °F 37.5 °F 29.45 in Calm   2.0 mph 97% 0.00 in -DZ
04:10 38.3 °F 37.5 °F 29.46 in SW 2.0 mph 4.0 mph 97% 0.00 in OVC
04:20 38.3 °F 37.5 °F 29.46 in SSW 2.0 mph 5.0 mph 97% 0.00 in OVC
04:30 38.3 °F 37.5 °F 29.46 in SW 1.0 mph 3.0 mph 97% 0.00 in OVC
04:40 38.3 °F 37.5 °F 29.46 in SSW 2.0 mph 4.0 mph 97% 0.00 in OVC
04:50 38.3 °F 37.5 °F 29.46 in SW 1.0 mph 5.0 mph 97% 0.00 in OVC
05:00 38.3 °F 37.5 °F 29.46 in Calm   5.0 mph 97% 0.00 in OVC
05:10 38.4 °F 37.6 °F 29.46 in SW 1.0 mph 4.0 mph 97% 0.00 in BKN
05:20 38.5 °F 37.7 °F 29.46 in SW 1.0 mph 4.0 mph 97% 0.00 in BKN
05:30 38.7 °F 37.9 °F 29.46 in SW 1.0 mph 7.0 mph 97% 0.00 in BKN
05:40 38.7 °F 38.2 °F 29.46 in SW 2.0 mph 4.0 mph 98% 0.00 in BKN
05:50 38.9 °F 38.4 °F 29.47 in SW 2.0 mph 6.0 mph 98% 0.00 in BKN
06:00 39.0 °F 38.5 °F 29.47 in SW 5.0 mph 9.0 mph 98% 0.00 in BKN
06:10 39.1 °F 38.6 °F 29.47 in SSW 5.0 mph 9.0 mph 98% 0.00 in -RA
06:20 39.2 °F 38.7 °F 29.47 in SSW 3.0 mph 10.0 mph 98% 0.00 in -RA
06:30 39.3 °F 38.5 °F 29.47 in SSW 2.0 mph 9.0 mph 97% 0.00 in -RA
06:40 39.4 °F 38.6 °F 29.47 in SSW 3.0 mph 12.0 mph 97% 0.00 in -RA
06:50 39.5 °F 38.7 °F 29.48 in SW 7.0 mph 13.0 mph 97% 0.00 in -RA
07:00 39.6 °F 38.8 °F 29.47 in SW 3.0 mph 12.0 mph 97% 0.00 in -RA
07:10 39.6 °F 38.8 °F 29.48 in SW 5.0 mph 13.0 mph 97% 0.00 in OVC
07:20 39.7 °F 38.9 °F 29.49 in SW 3.0 mph 12.0 mph 97% 0.00 in OVC
07:30 39.8 °F 39.0 °F 29.50 in SW 2.0 mph 9.0 mph 97% 0.00 in OVC
07:40 39.9 °F 39.1 °F 29.50 in SSW 3.0 mph 12.0 mph 97% 0.00 in OVC
07:50 40.0 °F 39.2 °F 29.49 in SSW 3.0 mph 8.0 mph 97% 0.00 in OVC
08:00 40.1 °F 39.3 °F 29.48 in SW 5.0 mph 7.0 mph 97% 0.00 in OVC
08:10 40.3 °F 39.5 °F 29.49 in SW 5.0 mph 8.0 mph 97% 0.00 in BKN
08:20 40.4 °F 39.6 °F 29.48 in SW 2.0 mph 8.0 mph 97% 0.00 in BKN
08:30 40.6 °F 39.8 °F 29.48 in SW 5.0 mph 8.0 mph 97% 0.00 in BKN
08:40 40.8 °F 40.0 °F 29.48 in SSW 1.0 mph 5.0 mph 97% 0.00 in BKN
08:50 41.1 °F 40.4 °F 29.49 in SSW 3.0 mph 8.0 mph 97% 0.00 in BKN
09:00 41.5 °F 40.7 °F 29.50 in SSW 3.0 mph 10.0 mph 97% 0.00 in BKN
09:10 41.8 °F 40.7 °F 29.50 in SW 6.0 mph 12.0 mph 96% 0.00 in SCT
09:20 42.1 °F 41.1 °F 29.51 in SW 3.0 mph 14.0 mph 96% 0.00 in SCT
09:30 42.3 °F 41.0 °F 29.53 in SSW 5.0 mph 10.0 mph 95% 0.00 in SCT
09:40 42.4 °F 41.1 °F 29.52 in SW 3.0 mph 8.0 mph 95% 0.00 in SCT
09:50 42.6 °F 41.2 °F 29.52 in WSW 1.0 mph 5.0 mph 95% 0.00 in SCT
10:00 42.8 °F 41.5 °F 29.51 in SW 1.0 mph 7.0 mph 95% 0.00 in SCT
10:10 43.1 °F 41.5 °F 29.50 in SW 1.0 mph 5.0 mph 94% 0.00 in OVC
10:20 43.6 °F 41.7 °F 29.50 in SSW 2.0 mph 7.0 mph 93% 0.00 in OVC
10:30 43.8 °F 42.0 °F 29.50 in SSW 2.0 mph 6.0 mph 93% 0.00 in OVC
10:40 43.9 °F 41.7 °F 29.51 in SSW 1.0 mph 7.0 mph 92% 0.00 in OVC
10:50 44.0 °F 41.8 °F 29.51 in SSW 1.0 mph 5.0 mph 92% 0.00 in OVC
11:00 44.0 °F 41.8 °F 29.50 in SW 2.0 mph 8.0 mph 92% 0.00 in OVC
11:10 44.3 °F 42.1 °F 29.50 in SSW 2.0 mph 6.0 mph 92% 0.00 in BKN
11:20 44.7 °F 42.2 °F 29.50 in SW 5.0 mph 7.0 mph 91% 0.00 in BKN
11:30 45.3 °F 42.5 °F 29.51 in SW 5.0 mph 9.0 mph 90% 0.00 in BKN
11:40 45.7 °F 42.7 °F 29.51 in SSW 1.0 mph 9.0 mph 89% 0.00 in BKN
11:50 45.8 °F 42.5 °F 29.51 in SSW 2.0 mph 8.0 mph 88% 0.00 in BKN
12:00 46.0 °F 42.6 °F 29.51 in WSW 1.0 mph 6.0 mph 88% 0.00 in BKN
12:10 46.4 °F 42.7 °F 29.51 in SW 2.0 mph 7.0 mph 87% 0.00 in BKN
12:20 46.6 °F 42.3 °F 29.50 in WSW 2.0 mph 12.0 mph 85% 0.00 in BKN
12:30 46.8 °F 42.2 °F 29.51 in SW 3.0 mph 8.0 mph 84% 0.00 in BKN
12:40 46.9 °F 42.0 °F 29.50 in SW 2.0 mph 10.0 mph 83% 0.00 in BKN
12:50 46.9 °F 42.0 °F 29.50 in WSW 5.0 mph 9.0 mph 83% 0.00 in BKN
13:00 46.9 °F 41.7 °F 29.49 in SSW 2.0 mph 10.0 mph 82% 0.00 in BKN
13:10 47.2 °F 42.0 °F 29.49 in SW 2.0 mph 10.0 mph 82% 0.00 in BKN
13:20 47.8 °F 42.3 °F 29.49 in WSW 3.0 mph 9.0 mph 81% 0.00 in BKN
13:30 48.1 °F 42.9 °F 29.49 in WSW 5.0 mph 12.0 mph 82% 0.00 in BKN
13:40 48.2 °F 42.6 °F 29.49 in WSW 6.0 mph 12.0 mph 81% 0.00 in BKN
13:50 48.3 °F 42.1 °F 29.49 in WSW 7.0 mph 15.0 mph 79% 0.00 in BKN
14:00 48.7 °F 41.5 °F 29.50 in WSW 5.0 mph 15.0 mph 76% 0.00 in BKN
14:10 48.5 °F 40.3 °F 29.49 in SW 6.0 mph 14.0 mph 73% 0.00 in BKN
14:20 48.4 °F 39.8 °F 29.49 in SSW 5.0 mph 13.0 mph 72% 0.00 in BKN
14:30 48.6 °F 39.6 °F 29.49 in SW 3.0 mph 13.0 mph 71% 0.00 in BKN
14:40 48.9 °F 39.9 °F 29.49 in SW 6.0 mph 12.0 mph 71% 0.00 in BKN
14:50 48.9 °F 39.9 °F 29.50 in SW 6.0 mph 15.0 mph 71% 0.00 in BKN
15:00 49.0 °F 36.5 °F 29.50 in SW 14.0 mph 25.0 mph 62% 0.00 in BKN
15:10 49.1 °F 34.9 °F 29.50 in WSW 5.0 mph 24.0 mph 58% 0.00 in SCT
15:20 48.9 °F 34.3 °F 29.51 in SW 8.0 mph 20.0 mph 57% 0.00 in SCT
15:30 48.8 °F 33.8 °F 29.52 in WSW 6.0 mph 20.0 mph 56% 0.00 in SCT
15:40 48.7 °F 31.8 °F 29.52 in WSW 5.0 mph 18.0 mph 52% 0.00 in SCT
15:50 48.1 °F 28.8 °F 29.53 in SW 12.0 mph 25.0 mph 47% 0.00 in SCT
16:00 47.4 °F 27.1 °F 29.53 in SW 12.0 mph 26.0 mph 45% 0.00 in SCT
16:10 47.0 °F 26.8 °F 29.53 in SW 8.0 mph 22.0 mph 45% 0.00 in SCT
16:20 46.1 °F 26.9 °F 29.53 in WSW 6.0 mph 20.0 mph 47% 0.00 in SCT
16:30 45.6 °F 27.5 °F 29.53 in WSW 6.0 mph 16.0 mph 49% 0.00 in SCT
16:40 45.1 °F 27.6 °F 29.53 in SW 2.0 mph 13.0 mph 50% 0.00 in SCT
16:50 44.7 °F 24.1 °F 29.53 in WSW 10.0 mph 24.0 mph 44% 0.00 in SCT
17:00 44.7 °F 21.8 °F 29.54 in WSW 12.0 mph 23.0 mph 40% 0.00 in SCT
17:10 44.5 °F 21.6 °F 29.54 in West 9.0 mph 26.0 mph 40% 0.00 in FEW
17:20 44.1 °F 21.9 °F 29.55 in WSW 7.0 mph 21.0 mph 41% 0.00 in FEW
17:30 43.7 °F 21.5 °F 29.56 in WSW 12.0 mph 22.0 mph 41% 0.00 in FEW
17:40 43.4 °F 22.4 °F 29.56 in SW 5.0 mph 21.0 mph 43% 0.00 in FEW
18:10 42.8 °F 21.3 °F 29.57 in SSW 6.0 mph 20.0 mph 42% 0.00 in CLR
18:20 42.5 °F 19.8 °F 29.57 in SW 6.0 mph 21.0 mph 40% 0.00 in CLR
18:30 42.3 °F 20.8 °F 29.58 in WSW 3.0 mph 21.0 mph 42% 0.00 in CLR
18:40 41.9 °F 22.6 °F 29.58 in WSW 7.0 mph 16.0 mph 46% 0.00 in CLR
18:50 41.5 °F 22.2 °F 29.59 in SW 8.0 mph 17.0 mph 46% 0.00 in CLR
19:00 41.1 °F 21.3 °F 29.59 in WSW 7.0 mph 17.0 mph 45% 0.00 in CLR
19:10 40.7 °F 19.9 °F 29.60 in WSW 8.0 mph 21.0 mph 43% 0.00 in CLR
19:20 40.4 °F 18.5 °F 29.60 in WSW 7.0 mph 26.0 mph 41% 0.00 in CLR
19:30 40.1 °F 17.1 °F 29.61 in WSW 7.0 mph 20.0 mph 39% 0.00 in CLR
19:40 39.8 °F 15.0 °F 29.61 in WSW 10.0 mph 20.0 mph 36% 0.00 in CLR
19:50 39.5 °F 14.7 °F 29.62 in WSW 8.0 mph 22.0 mph 36% 0.00 in CLR
20:00 39.2 °F 15.7 °F 29.62 in West 7.0 mph 20.0 mph 38% 0.00 in CLR
20:10 38.6 °F 15.2 °F 29.63 in WSW 7.0 mph 21.0 mph 38% 0.00 in CLR
20:20 38.1 °F 15.3 °F 29.64 in WSW 9.0 mph 18.0 mph 39% 0.00 in CLR
20:30 37.5 °F 15.9 °F 29.64 in WSW 10.0 mph 24.0 mph 41% 0.00 in CLR
20:40 37.2 °F 16.2 °F 29.64 in SW 7.0 mph 17.0 mph 42% 0.00 in CLR
20:50 36.8 °F 16.4 °F 29.65 in SW 8.0 mph 17.0 mph 43% 0.00 in CLR
21:00 36.4 °F 16.6 °F 29.65 in SW 5.0 mph 17.0 mph 44% 0.00 in CLR
21:10 36.1 °F 15.7 °F 29.66 in SSW 6.0 mph 20.0 mph 43% 0.00 in CLR
21:20 35.8 °F 14.9 °F 29.67 in SW 8.0 mph 20.0 mph 42% 0.00 in CLR
21:30 35.5 °F 15.7 °F 29.67 in SSW 5.0 mph 17.0 mph 44% 0.00 in CLR
21:40 35.1 °F 15.3 °F 29.67 in SW 7.0 mph 17.0 mph 44% 0.00 in CLR
21:50 34.7 °F 15.5 °F 29.68 in SW 7.0 mph 16.0 mph 45% 0.00 in CLR
22:00 34.5 °F 15.3 °F 29.69 in West 5.0 mph 20.0 mph 45% 0.00 in CLR
22:10 34.3 °F 14.6 °F 29.69 in West 3.0 mph 21.0 mph 44% 0.00 in CLR
22:20 33.9 °F 14.8 °F 29.70 in SW 6.0 mph 13.0 mph 45% 0.00 in CLR
22:30 33.6 °F 14.0 °F 29.70 in WSW 6.0 mph 25.0 mph 44% 0.00 in CLR
22:40 33.3 °F 14.2 °F 29.71 in SW 9.0 mph 18.0 mph 45% 0.00 in CLR
22:50 33.2 °F 14.1 °F 29.71 in WSW 6.0 mph 20.0 mph 45% 0.00 in CLR
23:00 32.9 °F 14.4 °F 29.72 in West 8.0 mph 15.0 mph 46% 0.00 in CLR
23:10 32.8 °F 14.7 °F 29.72 in SW 6.0 mph 21.0 mph 47% 0.00 in CLR
23:20 32.5 °F 14.5 °F 29.72 in SW 6.0 mph 18.0 mph 47% 0.00 in CLR
23:30 32.3 °F 14.8 °F 29.72 in WSW 5.0 mph 18.0 mph 48% 0.00 in CLR
23:40 32.1 °F 14.6 °F 29.73 in WSW 9.0 mph 22.0 mph 48% 0.00 in CLR
23:50 31.9 °F 14.4 °F 29.73 in WSW 7.0 mph 17.0 mph 48% 0.00 in CLR
TarryTown NY Weather
Compliments of Weather Underground - 1.75 mb